OPS 4682 DEB, 38417

Orbit data source: Space-Track

OPS 4682 DEB, 38417 is space debris in LEO originally from a launch on Sat, 03 Apr 1965 UTC launched from the Air Force Western Test Range (AFWTR). Debris objects in space refer to the collection of defunct objects orbiting the Earth. Examples of debris include non-operational satellites, rocket bodies, and fragments generated from explosions, collisions, or faulty payload assembly.

Loading next visibility...
Identifier
38417, 1965-027DW
Orbit
LEO
Country
Flag of USUS
Related business
Manufacturer
Unknown
Mission
Spacecraft
Bus & Motor
Unknown
Mass
Unknown
Launch date (UTC)
1965-04-03 (61 years ago)
Launch vehicle
Unknown
Launch site
Air Force Western Test Range (AFWTR)
Object type
Payload
Rocket body
Debris
Shape & HBR
Unknown shape, 0.1 m
Radar Cross Section
Medium (>0.1 m² and <1 m²)

Expand to show TLE details & history
Last TLE update: 1 week ago

TLE from 1 week ago
0 OPS 4682 DEB
1 38417U 65027DW  26240.80982911  .00000542  00000-0  18589-2 0  9999
2 38417  90.2537  13.9422 0030706 313.0904  46.7647 12.96700440616097
Epoch: 2026-08-28T19:26Z
TLE epoch observation values (Epoch: 2026-08-28T19:26:09.235Z)
Latitude
-0.00002°
Longitude
105.37493°
Altitude
1,261.859 km
Speed
7.232 km/s
True Right ascension
00h 55m 46s
True Declination
0° 00' 00"
Sunlit
Object was in full shadow at epoch
Visualization orbit readout
Latitude
Unknown
Longitude
Unknown
Altitude
Unknown
Speed
Unknown
Apparent Right ascension
Unknown
Apparent Declination
Unknown
Sunlit
N/A
Visualization observer readout
Local Sidereal Time
12:25:49
Azimuth
Unknown
Elevation
Unknown
Doppler factor
Unknown
Orbital elements
Apogee altitude
1,295.665 km
Perigee altitude
1,248.683 km
Semi-major axis
7,650.311 km
Eccentricity
0.00307
Inclination
90.2537°
RAAN
13.9422°
Arg. of periapsis
313.0904°
True anomaly
47.02172°
Mean anomaly
46.7647°
Eccentric anomaly
46.89314°
Mean motion
3.24358 °/min
Orbital period
110.99 mins
BSTAR
0.0018589
Loading maneuver chart data...
Computing Atmospheric mass density...
Loading historical data...
Loading historical data...
Loading historical data...
Loading historical data...
Loading historical data...
Loading historical data...
Loading historical data...

Documentation

Showing up to 5 results
|